#timestamp,LO_Frequency,Hit 
1504072815.5,286046995.0,N
1504072835.3,286046996.3,N
1504072855.1,286046994.0,N
1504072875.9,286046992.0,N
1504072895.7,286046992.7,N
1504072915.5,286046991.3,N
1504072935.4,286046992.6,N
1504072955.2,286046992.2,N
1504072975.0,286046991.7,N
1504072975.9,286046991.7,N
1504072995.7,286046991.8,N
1504073015.6,286046996.4,N
1504073035.4,286046995.9,N
1504073055.2,286046993.4,N
1504073075.1,286046993.4,N
1504073076.0,286046993.4,N
1504073095.8,286046990.8,N
1504073115.6,286046989.5,N
1504073135.5,286046988.8,N
1504073155.3,286046991.2,N
1504073175.1,286046988.7,N
1504073195.9,286046991.0,N
1504073215.7,286046993.0,N
1504073235.5,286046988.5,N
1504073255.4,286046986.9,N
1504073275.6,286046987.3,N
1504073295.4,286046990.0,N
1504073315.3,286046988.9,P
1504073335.1,286046993.7,P
1504073336.0,286046993.7,P
1504073355.8,286046988.5,P
1504073375.7,286047002.8,N
1504073395.5,286047007.0,N
1504073415.3,286047012.4,N
1504073435.2,286047014.1,N
1504073455.9,286047021.4,N
1504073475.7,286047028.4,N
1504073495.6,286047029.9,N
1504073515.4,286047027.3,N
1504073535.2,286047028.5,N
1504073555.1,286047030.3,N
1504073556.0,286047030.3,N
1504073575.8,286047036.2,N
1504073595.6,286047035.0,N
1504073615.5,286047035.5,N
1504073635.3,286047035.2,N
1504073655.1,286047037.5,N
1504073675.8,286047035.8,N
1504073695.7,286047038.9,N
1504073715.5,286047043.3,N
1504073735.3,286047049.2,P
1504073755.2,286047023.0,N
1504073775.0,286047022.2,N
1504073775.9,286047022.2,N
1504073795.7,286047022.5,N
1504073815.6,286047023.0,N
1504073835.4,286047021.1,N
1504073855.2,286047022.0,N
1504073875.1,286047023.1,N
1504073876.0,286047023.1,N
1504073895.8,286047024.6,P
1504073915.6,286046999.9,N
1504073935.5,286046999.7,N
1504073955.3,286047000.8,N
1504073975.1,286046999.3,N
1504073995.2,286047002.2,N
1504074015.1,286047000.8,N
1504074016.0,286047000.8,N
1504074035.8,286047002.7,N
1504074055.6,286046999.9,N
1504074075.5,286047000.3,N
1504074095.3,286047001.1,N
1504074115.1,286047002.1,N
1504074135.9,286047001.8,N
1504074155.7,286047003.0,N
1504074175.5,286047002.1,N
1504074195.3,286047006.0,N
1504074215.2,286047004.2,N
1504074235.9,286047005.2,N
1504074255.7,286047006.4,N
1504074275.6,286047005.1,N
1504074295.4,286047002.9,N
1504074315.2,286046999.9,N
1504074335.1,286047001.0,N
1504074336.0,286047001.0,N
1504074355.8,286047001.3,N
1504074375.6,286047002.3,N
1504074395.5,286047003.8,N
1504074415.3,286047003.4,N
1504074435.1,286047006.3,N
1504074455.9,286047007.3,N
1504074475.7,286047009.9,P
1504074495.5,286047007.1,N
1504074515.4,286047007.1,N
1504074535.2,286047004.6,N
1504074555.0,286047005.7,N
1504074555.9,286047005.7,N
1504074575.8,286047001.9,N
1504074595.6,286047004.0,N
1504074615.4,286047000.7,N
1504074635.3,286046999.5,N
1504074655.1,286046997.8,N
1504074656.0,286046997.8,N
1504074675.8,286046997.9,N
1504074695.7,286046995.4,N
1504074715.6,286047002.8,N
1504074735.4,286046998.4,N
1504074755.2,286046994.2,N
1504074775.1,286046994.3,N
1504074776.0,286046994.3,N
1504074795.8,286046995.4,N
1504074815.6,286046996.4,N
1504074835.5,286046998.1,N
1504074855.3,286046998.1,N
1504074875.1,286047000.5,N
1504074895.9,286047000.1,N
1504074915.1,286047002.3,N
1504074935.9,286047001.6,N
1504074955.7,286047000.3,N
1504074975.5,286046998.5,N
1504074995.3,286046996.6,N
1504075015.2,286046996.6,N
1504075035.0,286046996.4,N
1504075035.9,286046996.4,N
1504075055.7,286046997.7,N
1504075075.6,286046997.0,N
1504075095.4,286046997.1,N
1504075115.2,286046996.9,N
1504075135.1,286047000.6,N
1504075136.0,286047000.6,N
1504075155.4,286046995.6,N
1504075175.3,286046993.4,N
1504075195.1,286046995.5,N
1504075196.0,286046995.5,N
1504075215.8,286046995.3,N
1504075235.7,286046997.6,N
1504075255.5,286046999.6,N
1504075275.1,286046999.1,N
1504075276.0,286046999.1,N
1504075295.8,286046996.9,N
1504075315.6,286046997.3,N
1504075335.5,286047000.7,N
1504075355.3,286047000.0,N
1504075375.1,286046997.4,N
1504075395.9,286046998.9,N
1504075415.7,286046997.7,N
1504075435.5,286046997.5,N
1504075455.4,286046995.8,N
1504075475.2,286046999.6,N
1504075495.0,286046996.9,N
1504075495.9,286046996.9,N
1504075515.8,286046997.3,N
1504075535.6,286047000.8,N
1504075555.4,286046999.5,N
1504075575.2,286046999.3,N
1504075595.1,286046999.5,N
1504075596.0,286046999.5,N
1504075615.8,286046999.6,N
1504075635.6,286046995.7,N
1504075655.5,286046998.2,N
1504075675.3,286046998.5,N
1504075695.1,286047001.1,N
1504075715.9,286047000.4,N
1504075735.7,286047000.6,N
1504075755.5,286046999.9,N
1504075775.4,286047003.7,N
1504075795.2,286046999.2,N
1504075815.0,286046996.6,N
1504075835.7,286046996.3,N
1504075855.5,286046996.3,N
1504075875.4,286046998.8,N
1504075895.2,286047000.5,N
1504075915.0,286046996.4,N
1504075915.9,286046996.4,N
1504075935.8,286046989.7,P
1504075955.6,286046991.2,N
1504075975.4,286046996.4,N
1504075995.3,286046998.0,N
1504076015.1,286046997.2,N
1504076016.0,286046997.2,N
1504076035.8,286046995.3,N
1504076055.7,286047000.0,N
1504076075.5,286047001.2,N
1504076095.3,286046997.1,N
1504076115.2,286046999.5,N
1504076135.9,286046998.3,N
1504076155.7,286047000.4,N
1504076175.6,286047001.2,N
1504076195.4,286046996.8,N
1504076215.2,286046997.0,N
1504076235.0,286046995.6,N
1504076235.9,286046995.6,N
1504076255.8,286046997.7,N
1504076275.6,286046999.0,N
1504076295.4,286046997.9,N
1504076315.3,286046998.6,N
1504076335.1,286046994.1,N
1504076355.8,286046995.8,N
1504076375.7,286046997.8,N
1504076395.5,286046996.0,N
